EW2910 Weather Reports


Display with metric or nautical units.
time (UTC)temp
F
wind
direction
speed
MPH
gust
MPH
rain 1hr
in
rain 24hr
in
rain mn
in
humidity
%
barometer
mb
20260906103101 74 0 0.0 0.0 0.00 0.25 0.00 97 1012.5
20260906101600 74 0 0.0 0.0 0.00 0.25 0.00 97 1012.3
20260906100103 75 0 0.0 0.0 0.00 0.25 0.00 97 1012.0
20260906094601 75 0 0.0 0.0 0.00 0.25 0.00 97 1011.7
20260906093109 75 0 0.0 1.0 0.00 0.25 0.00 97 1011.5
20260906091609 75 0 0.0 1.0 0.00 0.25 0.00 97 1011.7
20260906090115 75 0 0.0 1.0 0.00 0.25 0.00 97 1011.5
20260906084613 74 0 0.0 0.0 0.00 0.25 0.00 97 1011.6
20260906083102 74 0 0.0 0.0 0.00 0.25 0.00 96 1011.6
20260906081607 75 0 0.0 0.0 0.00 0.25 0.00 96 1011.5
20260906080103 75 0 0.0 0.0 0.00 0.25 0.00 96 1011.4
20260906074612 75 0 0.0 0.0 0.00 0.25 0.00 97 1011.3
20260906073109 75 0 0.0 1.0 0.00 0.25 0.00 96 1011.4
20260906071600 75 0 0.0 0.0 0.00 0.25 0.00 96 1011.6
20260906070134 75 0 0.0 2.0 0.00 0.25 0.00 96 1011.4
20260906064602 76 236 0.0 1.0 0.00 0.25 0.00 96 1011.8
20260906063104 76 234 0.0 2.0 0.00 0.25 0.00 96 1012.2
20260906061635 76 0 0.0 1.0 0.00 0.25 0.00 96 1012.7
20260906060104 76 0 0.0 0.0 0.00 0.25 0.00 96 1012.9
20260906054603 76 0 0.0 1.0 0.00 0.25 0.00 96 1012.9
20260906053101 76 0 0.0 1.0 0.00 0.25 0.00 96 1013.0
20260906051601 76 0 0.0 0.0 0.00 0.25 0.00 96 1013.0
20260906050115 76 0 0.0 1.0 0.00 0.25 0.00 95 1013.3
20260906044603 77 0 0.0 1.0 0.00 0.25 0.00 95 1013.4
20260906043111 77 0 0.0 0.0 0.00 0.25 0.00 95 1013.6
20260906041600 77 0 0.0 1.0 0.00 0.25 0.00 95 1013.4
20260906040116 77 0 0.0 2.0 0.00 0.25 0.00 95 1013.3
20260906034601 77 0 0.0 0.0 0.00 0.25 0.25 96 1013.5
20260906033102 77 0 0.0 0.0 0.00 0.25 0.25 96 1013.8
20260906031609 77 0 0.0 0.0 0.00 0.25 0.25 95 1013.6
20260906030110 77 0 0.0 0.0 0.00 0.25 0.25 95 1013.5
20260906024558 77 0 0.0 3.0 0.00 0.25 0.25 95 1013.6
20260906023130 77 0 0.0 0.0 0.00 0.25 0.25 94 1013.8
20260906021608 77 0 0.0 2.0 0.00 0.25 0.25 93 1013.6
20260906020108 78 0 0.0 5.0 0.00 0.25 0.25 94 1013.6
20260906014626 78 0 0.0 0.0 0.00 0.25 0.25 95 1013.5
20260906013104 78 0 0.0 2.0 0.00 0.25 0.25 95 1013.3
20260906011603 78 0 0.0 2.0 0.00 0.25 0.25 95 1013.1
20260906004613 80 0 0.0 1.0 0.00 0.25 0.25 95 1013.0
20260906003104 80 0 0.0 0.0 0.00 0.25 0.25 95 1012.7
20260906001603 80 0 0.0 0.0 0.00 0.25 0.25 94 1012.5
20260906000111 81 0 0.0 0.0 0.00 0.25 0.25 92 1012.5
20260905234605 82 0 0.0 0.0 0.00 0.25 0.25 90 1012.4
20260905233104 83 0 0.0 0.0 0.00 0.25 0.25 89 1012.4
20260905231603 82 0 0.0 0.0 0.00 0.25 0.25 90 1012.4
20260905230108 81 0 0.0 0.0 0.00 0.25 0.25 93 1012.5
20260905224608 80 0 0.0 0.0 0.07 0.25 0.25 95 1012.7
20260905223106 79 0 0.0 0.0 0.19 0.25 0.25 94 1012.7
20260905221559 79 0 0.0 0.0 0.19 0.25 0.25 94 1012.7
20260905220121 79 0 2.0 11.0 0.19 0.25 0.25 92 1012.7
20260905214605 79 182 1.0 4.0 0.11 0.17 0.17 92 1012.8
20260905213112 80 91 0.0 3.0 0.00 0.06 0.06 90 1013.0
20260905211609 81 0 0.0 2.0 0.03 0.06 0.06 91 1012.1
20260905210104 80 0 0.0 0.0 0.06 0.06 0.06 92 1012.4
20260905204605 79 0 0.0 10.0 0.06 0.06 0.06 91 1012.2
20260905203107 79 0 2.0 9.0 0.06 0.06 0.06 90 1012.5
20260905201603 83 155 3.0 11.0 0.03 0.03 0.03 83 1012.4
20260905200109 85 73 5.0 15.0 0.00 0.00 0.00 79 1012.5
20260905194607 92 19 5.0 9.0 0.00 0.05 0.00 65 1012.5
20260905193104 96 0 2.0 8.0 0.00 0.05 0.00 61 1012.4
20260905191604 95 175 1.0 10.0 0.00 0.05 0.00 64 1012.6
20260905190113 94 0 2.0 11.0 0.00 0.05 0.00 62 1012.7
20260905184604 94 206 7.0 14.0 0.00 0.05 0.00 63 1012.8
20260905183125 96 237 2.0 8.0 0.00 0.05 0.00 60 1012.6
20260905181604 95 257 1.0 9.0 0.00 0.05 0.00 61 1012.8
20260905174605 93 321 0.0 5.0 0.00 0.05 0.00 68 1013.3
20260905173103 92 260 0.0 5.0 0.00 0.05 0.00 67 1013.6
20260905171605 93 236 0.0 6.0 0.00 0.05 0.00 68 1013.8
20260905164607 93 309 1.0 6.0 0.00 0.05 0.00 67 1014.4
20260905163106 93 0 1.0 6.0 0.00 0.05 0.00 69 1014.4
20260905161601 93 189 3.0 8.0 0.00 0.05 0.00 67 1014.6
20260905160123 92 0 2.0 8.0 0.00 0.05 0.00 69 1014.9
20260905154607 92 228 2.0 6.0 0.00 0.05 0.00 71 1014.9
20260905153115 90 0 0.0 6.0 0.00 0.05 0.00 72 1014.9
20260905151633 91 284 0.0 7.0 0.00 0.05 0.00 73 1015.0
20260905150101 90 207 1.0 6.0 0.00 0.05 0.00 75 1014.9
20260905144602 88 189 3.0 7.0 0.00 0.05 0.00 77 1015.1
20260905143100 88 226 1.0 6.0 0.00 0.05 0.00 79 1015.1
20260905141604 88 0 0.0 3.0 0.00 0.05 0.00 80 1015.1
20260905140110 87 0 0.0 5.0 0.00 0.05 0.00 82 1014.9
20260905134601 85 186 1.0 3.0 0.00 0.05 0.00 85 1015.1
20260905133107 84 0 0.0 0.0 0.00 0.05 0.00 86 1015.0
20260905131611 83 0 0.0 2.0 0.00 0.05 0.00 89 1015.1
20260905130110 82 0 1.0 5.0 0.00 0.05 0.00 90 1015.1
20260905124603 80 193 0.0 1.0 0.00 0.05 0.00 92 1015.0
20260905123102 79 0 0.0 4.0 0.00 0.05 0.00 94 1014.9
20260905121602 78 0 1.0 4.0 0.00 0.05 0.00 96 1014.8
20260905120112 77 0 0.0 0.0 0.00 0.05 0.00 97 1014.7
20260905114601 76 0 0.0 0.0 0.00 0.05 0.00 98 1014.5
20260905113105 75 0 0.0 0.0 0.00 0.05 0.00 98 1014.3
20260905111613 75 0 0.0 0.0 0.00 0.05 0.00 98 1014.4
20260905110105 75 0 0.0 0.0 0.00 0.05 0.00 97 1014.2
20260905104607 75 0 0.0 0.0 0.00 0.05 0.00 97 1014.1